TimeEST,TemperatureF,Dew PointF,Humidity,Sea Level PressureIn,VisibilityMPH,Wind Direction,Wind SpeedMPH,Gust SpeedMPH,PrecipitationIn,Events,Conditions,WindDirDegrees,DateUTC
12:53 AM,30.9,27.0,85,30.03,10.0,West,3.5,-,N/A,,Mostly Cloudy,270,2012-11-26 05:53:00
1:53 AM,30.0,26.1,85,30.04,10.0,Calm,Calm,-,N/A,,Clear,0,2012-11-26 06:53:00
2:53 AM,28.0,26.1,92,30.06,9.0,SSW,4.6,-,N/A,,Scattered Clouds,200,2012-11-26 07:53:00
3:53 AM,28.9,25.0,85,30.08,8.0,Calm,Calm,-,N/A,,Clear,0,2012-11-26 08:53:00
4:53 AM,28.9,26.1,89,30.08,8.0,Calm,Calm,-,N/A,,Clear,0,2012-11-26 09:53:00
5:53 AM,26.1,23.0,88,30.12,7.0,Calm,Calm,-,N/A,,Clear,0,2012-11-26 10:53:00
6:53 AM,26.1,24.1,92,30.14,5.0,Calm,Calm,-,N/A,,Clear,0,2012-11-26 11:53:00
7:53 AM,28.0,24.1,85,30.16,5.0,Calm,Calm,-,N/A,,Clear,0,2012-11-26 12:53:00
8:53 AM,30.0,27.0,88,30.17,5.0,Calm,Calm,-,N/A,,Clear,0,2012-11-26 13:53:00
9:53 AM,34.0,28.9,82,30.19,6.0,Calm,Calm,-,N/A,,Haze,0,2012-11-26 14:53:00
10:53 AM,37.0,30.0,76,30.20,7.0,West,3.5,-,N/A,,Clear,280,2012-11-26 15:53:00
11:53 AM,37.9,28.9,70,30.19,8.0,WNW,4.6,-,N/A,,Partly Cloudy,290,2012-11-26 16:53:00
12:53 PM,39.0,28.9,67,30.17,9.0,Variable,3.5,-,N/A,,Partly Cloudy,0,2012-11-26 17:53:00
1:53 PM,39.0,28.0,65,30.18,10.0,WNW,5.8,-,N/A,,Mostly Cloudy,290,2012-11-26 18:53:00
2:53 PM,39.9,28.0,63,30.17,10.0,WNW,3.5,-,N/A,,Mostly Cloudy,290,2012-11-26 19:53:00
3:53 PM,39.9,28.0,63,30.19,10.0,NW,5.8,-,N/A,,Mostly Cloudy,310,2012-11-26 20:53:00
4:53 PM,39.0,28.0,65,30.19,10.0,NW,5.8,-,N/A,,Overcast,310,2012-11-26 21:53:00
5:53 PM,37.9,28.0,68,30.20,10.0,WNW,4.6,-,N/A,,Overcast,300,2012-11-26 22:53:00
6:27 PM,37.4,28.4,70,30.20,10.0,NNW,8.1,-,N/A,,Overcast,330,2012-11-26 23:27:00
6:38 PM,37.4,26.6,65,30.20,10.0,NNW,8.1,-,N/A,,Overcast,340,2012-11-26 23:38:00
6:53 PM,37.0,27.0,67,30.22,10.0,North,10.4,-,N/A,,Overcast,360,2012-11-26 23:53:00
7:53 PM,35.1,26.1,70,30.24,10.0,North,10.4,-,N/A,,Overcast,10,2012-11-27 00:53:00
8:53 PM,35.1,24.1,64,30.25,10.0,North,9.2,-,N/A,,Overcast,360,2012-11-27 01:53:00
9:53 PM,34.0,23.0,64,30.27,10.0,North,9.2,-,N/A,,Overcast,350,2012-11-27 02:53:00
10:53 PM,33.1,23.0,66,30.28,10.0,North,4.6,-,N/A,,Overcast,350,2012-11-27 03:53:00
11:53 PM,33.1,21.0,61,30.28,10.0,North,8.1,-,N/A,,Overcast,10,2012-11-27 04:53:00